[[{"header":{"parameterUnit":"m.s-1","parameterCategory":1,"la1":30.2991,"la2":30.254,"lo1":-89.0895,"lo2":-89.0444,"dy":0.0017,"dx":0.0017,"nx":28,"ny":28,"refTime":"2025-08-02T21:00:00:Z","depth":0,"parameterNumber":2,"parameterNumberName":"U-component_of_WINDS"},"data":[0,0,0,0,0,0,0,0,0,0,0,0,0,0,0,0,0,0,0,0,0,0,0,0,0,0,0,0,0,0,0,0,0,0,0,0,0,0,0,0,0,0,0,0,0,0,0,0,0,0,0,0,0,0,0,0,0,0,-0.2084,-0.2085,0,-0.2256,-0.2258,-0.226,-0.228,-0.2279,-0.2277,-0.2275,-0.2456,-0.2462,-0.2469,0,0,0,0,0,0,0,0,0,0,0,0,0,-0.1777,-0.1783,-0.2083,-0.2086,-0.2088,-0.2255,-0.2258,-0.226,-0.2281,-0.2279,-0.2277,-0.2275,-0.2454,-0.2461,-0.2469,0,0,0,0,0,0,0,0,0,0,0,0,0,-0.1926,-0.1784,-0.2083,-0.2118,-0.2123,-0.2255,-0.2258,-0.2261,-0.2281,-0.2279,-0.2276,-0.2274,-0.2451,-0.2461,-0.247,-0.258,0,0,-0.25,-0.2504,0,0,0,0,0,0,0,0,-0.1917,-0.1937,-0.2111,-0.2116,-0.2122,-0.2244,-0.2216,-0.2368,-0.2282,-0.2221,-0.2275,-0.2272,-0.2388,-0.2402,-0.2441,-0.2589,-0.2597,-0.25,-0.2506,-0.251,-0.2513,0,0,0,0,0,0,0,-0.1907,-0.193,-0.2152,-0.2113,-0.212,-0.2127,-0.2145,-0.2245,-0.2317,-0.2226,-0.2228,-0.2248,-0.239,-0.2431,-0.2445,-0.2599,-0.25,-0.2509,-0.2515,-0.2518,-0.2848,-0.2851,0,0,0,0,0,0,-0.189,-0.1921,-0.2146,-0.2157,-0.2011,-0.2134,-0.2155,-0.2207,-0.2316,-0.233,-0.225,-0.2248,-0.2416,-0.2434,-0.2451,-0.2589,-0.251,-0.2519,-0.2525,-0.2845,-0.2849,-0.2852,0,0,0,0,0,0,-0.1883,-0.1909,-0.2139,-0.204,-0.2069,-0.2142,-0.2201,-0.2212,-0.2253,-0.2334,-0.2347,-0.2278,-0.2415,-0.2438,-0.2548,-0.2595,-0.2524,-0.2532,-0.2842,-0.2846,-0.285,-0.2864,0,0,0,0,0,0,-0.1874,-0.1907,-0.1949,-0.204,-0.2075,-0.2232,-0.2204,-0.2217,-0.2269,-0.2268,-0.2364,-0.2377,-0.2415,-0.2534,-0.2558,-0.2607,-0.254,-0.2838,-0.2844,-0.2849,-0.286,-0.2868,-0.2876,0,0,0,0,0,-0.1863,-0.1946,-0.1951,-0.1978,-0.2128,-0.2235,-0.2255,-0.2295,-0.2273,-0.2316,-0.2368,-0.2374,-0.2586,-0.2545,-0.2572,-0.2625,-0.2835,-0.2842,-0.2849,-0.2856,-0.2867,-0.2875,0,0,0,0,0,0,-0.186,-0.1959,-0.1965,-0.208,-0.2149,-0.2238,-0.2294,-0.2304,-0.2382,-0.2378,-0.2426,-0.2447,-0.2556,-0.2601,-0.2554,-0.2738,-0.2709,-0.2721,-0.2705,-0.2716,-0.2723,-0.2711,-0.2548,0,0,0,0,0,-0.1872,-0.1949,-0.2032,-0.2126,-0.216,-0.2221,-0.2269,-0.2293,-0.2367,-0.2397,-0.2457,-0.2529,-0.2612,-0.2666,-0.2747,-0.2865,-0.2888,-0.2915,-0.2923,-0.293,-0.2941,-0.3008,-0.3022,-0.2874,-0.2874,-0.2874,0,0,-0.1899,-0.1963,-0.2009,-0.2127,-0.2183,-0.2263,-0.2245,-0.2331,-0.2392,-0.241,-0.2518,-0.2565,-0.2649,-0.2764,-0.2818,-0.2805,-0.2986,-0.2938,-0.2942,-0.2951,-0.3017,-0.303,-0.3043,-0.2879,-0.2878,-0.2877,0,0,-0.199,-0.2045,-0.213,-0.2186,-0.227,-0.231,-0.2331,-0.2419,-0.245,-0.2558,-0.2575,-0.2648,-0.2789,-0.2849,-0.2898,-0.301,-0.302,-0.3035,-0.3078,-0.3143,-0.3155,-0.3166,-0.3208,-0.3222,-0.3045,-0.3045,-0.3045,0,-0.2014,-0.2134,-0.2172,-0.2258,-0.231,-0.2328,-0.2415,-0.2469,-0.2576,-0.2612,-0.2596,-0.2774,-0.2832,-0.2962,-0.2989,-0.3027,-0.3054,-0.3026,-0.315,-0.3161,-0.3172,-0.3212,-0.3228,-0.3047,-0.3047,-0.3046,-0.3046,0,-0.216,-0.2243,-0.2301,-0.2403,-0.2461,-0.2547,-0.26,-0.2655,-0.2674,-0.2716,-0.2827,-0.2896,-0.2992,-0.3024,-0.3044,-0.3158,-0.3148,-0.314,-0.3112,-0.3186,-0.3226,-0.3241,-0.3049,-0.3048,-0.3048,-0.3048,0,0,-0.2255,-0.2376,-0.2397,-0.2444,-0.2538,-0.2604,-0.2691,-0.2783,-0.283,-0.2903,-0.2979,-0.3097,-0.3091,-0.3146,-0.3173,-0.323,-0.3317,-0.3216,-0.3219,-0.3234,-0.3448,-0.3454,-0.3472,-0.3322,-0.3325,-0.3328,-0.3441,0,-0.2358,-0.2512,-0.2549,-0.2682,-0.2761,-0.2779,-0.2855,-0.2922,-0.2963,-0.3037,-0.3083,-0.3167,-0.3151,-0.3185,-0.3242,-0.3294,-0.3361,-0.3286,-0.3395,-0.3399,-0.3376,-0.3492,-0.3499,-0.3603,-0.3457,-0.3459,-0.3461,0,-0.25,-0.2575,-0.2715,-0.28,-0.2834,-0.2901,-0.2989,-0.3059,-0.3135,-0.3161,-0.3223,-0.3244,-0.3336,-0.3301,-0.343,-0.3379,-0.3425,-0.3457,-0.3462,-0.3476,-0.3436,-0.3511,-0.3637,-0.3653,-0.3485,-0.3483,-0.3482,0,-0.2558,-0.2694,-0.2796,-0.2835,-0.2935,-0.2983,-0.3027,-0.3101,-0.3154,-0.3231,-0.3266,-0.3353,-0.3401,-0.3469,-0.3513,-0.3483,-0.3639,-0.3607,-0.3665,-0.3664,-0.3699,-0.3697,-0.3837,-0.3725,-0.3725,-0.3725,-0.3725,0,-0.267,-0.2756,-0.2823,-0.2886,-0.2983,-0.3024,-0.312,-0.3164,-0.323,-0.3303,-0.3324,-0.3392,-0.3446,-0.3522,-0.3557,-0.3659,-0.3681,-0.3706,-0.3714,-0.3705,-0.3702,-0.3738,-0.3733,-0.3729,-0.3728,-0.3727,-0.3727,0,-0.2752,-0.28,-0.2913,-0.2999,-0.3022,-0.309,-0.3164,-0.3227,-0.3268,-0.336,-0.3384,-0.3449,-0.354,-0.359,-0.3704,-0.3728,-0.3843,-0.3847,-0.3817,-0.3821,-0.3877,-0.3872,-0.4047,-0.4072,-0.3941,-0.3943,-0.3944,0,-0.2822,-0.2889,-0.2981,-0.3031,-0.3076,-0.3156,-0.321,-0.3253,-0.3309,-0.3401,-0.3453,-0.3544,-0.362,-0.3764,-0.3822,-0.391,-0.3917,-0.3972,-0.3931,-0.3919,-0.3921,-0.3917,-0.3925,-0.398,-0.3982,-0.3983,-0.3983,0,-0.2942,-0.2962,-0.3039,-0.3124,-0.3187,-0.3257,-0.3326,-0.3365,-0.342,-0.3482,-0.3574,-0.3633,-0.3748,-0.384,-0.3931,-0.3979,-0.3991,-0.3995,-0.4014,-0.4006,-0.3987,-0.4,-0.3839,-0.3992,-0.3991,-0.399,-0.399,-0.399,-0.3022,-0.3082,-0.3156,-0.3241,-0.3297,-0.3361,-0.3424,-0.3472,-0.355,-0.3647,-0.3667,-0.3765,-0.3841,-0.3965,-0.4015,-0.4092,-0.4082,-0.4108,-0.4116,-0.4122,-0.4125,-0.3972,-0.4109,-0.4109,-0.4109,-0.4109,-0.4108,0,-0.3144,-0.3193,-0.327,-0.3365,-0.3432,-0.3435,-0.3512,-0.3568,-0.3653,-0.3722,-0.3796,-0.3902,-0.399,-0.4055,-0.4145,-0.4195,-0.4204,-0.4218,-0.4216,-0.4227,-0.4128,-0.4104,-0.421,-0.421,-0.421,-0.421,-0.421,-0.421,-0.3216,-0.3318,-0.3347,-0.3478,-0.3526,-0.3621,-0.3665,-0.3724,-0.3779,-0.3897,-0.397,-0.4011,-0.4079,-0.4174,-0.4255,-0.4272,-0.4306,-0.432,-0.4338,-0.4245,-0.4234,-0.4224,-0.4201,-0.4326,-0.4326,-0.443,-0.4431,-0.4432]},{"header":{"parameterUnit":"m.s-1","parameterCategory":1,"la1":30.2991,"la2":30.254,"lo1":-89.0895,"lo2":-89.0444,"dy":0.0017,"dx":0.0017,"nx":28,"ny":28,"refTime":"2025-08-02T21:00:00:Z","depth":0,"parameterNumber":3,"parameterNumberName":"V-component_of_WINDS"},"data":[0,0,0,0,0,0,0,0,0,0,0,0,0,0,0,0,0,0,0,0,0,0,0,0,0,0,0,0,0,0,0,0,0,0,0,0,0,0,0,0,0,0,0,0,0,0,0,0,0,0,0,0,0,0,0,0,0,0,-3.4305,-3.4305,0,-3.4373,-3.4374,-3.4374,-3.4325,-3.4322,-3.432,-3.4318,-3.4383,-3.4386,-3.439,0,0,0,0,0,0,0,0,0,0,0,0,0,-3.4126,-3.4129,-3.4304,-3.4305,-3.4306,-3.4373,-3.4374,-3.4374,-3.4325,-3.4322,-3.432,-3.4317,-3.4381,-3.4386,-3.439,0,0,0,0,0,0,0,0,0,0,0,0,0,-3.42,-3.4131,-3.4304,-3.429,-3.4289,-3.4372,-3.4374,-3.4375,-3.4325,-3.4322,-3.4319,-3.4316,-3.438,-3.4385,-3.4391,-3.4491,0,0,-3.4408,-3.4411,0,0,0,0,0,0,0,0,-3.4195,-3.4206,-3.4291,-3.4291,-3.429,-3.4337,-3.4334,-3.4414,-3.4326,-3.4311,-3.4318,-3.4314,-3.437,-3.4376,-3.4396,-3.4494,-3.4497,-3.4409,-3.4412,-3.4414,-3.4416,0,0,0,0,0,0,0,-3.419,-3.4203,-3.4331,-3.4292,-3.4292,-3.4278,-3.4285,-3.4349,-3.4358,-3.4312,-3.4309,-3.4318,-3.4369,-3.439,-3.4397,-3.4498,-3.4408,-3.4413,-3.4417,-3.4419,-3.4681,-3.4685,0,0,0,0,0,0,-3.4187,-3.4199,-3.4329,-3.4333,-3.4234,-3.4284,-3.4291,-3.4325,-3.4357,-3.4359,-3.4321,-3.4316,-3.4382,-3.439,-3.4399,-3.4518,-3.4414,-3.442,-3.4423,-3.4678,-3.4682,-3.4686,0,0,0,0,0,0,-3.4184,-3.42,-3.4326,-3.4265,-3.428,-3.429,-3.4329,-3.4328,-3.435,-3.4363,-3.4364,-3.4342,-3.438,-3.4391,-3.4469,-3.452,-3.4422,-3.4427,-3.4673,-3.4679,-3.4684,-3.4757,0,0,0,0,0,0,-3.4179,-3.4199,-3.4238,-3.4267,-3.4284,-3.4397,-3.4332,-3.4332,-3.436,-3.4354,-3.4383,-3.4385,-3.4378,-3.4461,-3.4474,-3.4526,-3.4432,-3.4669,-3.4676,-3.4682,-3.475,-3.4765,-3.4777,0,0,0,0,0,-3.4173,-3.4255,-3.424,-3.4256,-3.4334,-3.44,-3.4409,-3.4402,-3.4365,-3.4403,-3.4412,-3.4384,-3.4512,-3.4469,-3.4484,-3.4538,-3.4666,-3.4674,-3.4682,-3.4745,-3.4762,-3.4776,0,0,0,0,0,0,-3.4229,-3.4258,-3.4242,-3.4336,-3.4366,-3.4391,-3.444,-3.4421,-3.446,-3.4453,-3.444,-3.4447,-3.4529,-3.4541,-3.4492,-3.4636,-3.4583,-3.4594,-3.4625,-3.4642,-3.4655,-3.465,-3.4436,0,0,0,0,0,-3.4253,-3.4307,-3.4328,-3.4409,-3.4425,-3.443,-3.4459,-3.4451,-3.448,-3.4492,-3.4506,-3.4535,-3.4581,-3.4612,-3.4656,-3.4752,-3.4757,-3.4796,-3.481,-3.482,-3.483,-3.4881,-3.4899,-3.4712,-3.4712,-3.4712,0,0,-3.4302,-3.4324,-3.4358,-3.4421,-3.4443,-3.4497,-3.4441,-3.45,-3.4539,-3.45,-3.4575,-3.4587,-3.4618,-3.4705,-3.4744,-3.4718,-3.4883,-3.4831,-3.4839,-3.4843,-3.4892,-3.4909,-3.4925,-3.4718,-3.4717,-3.4716,0,0,-3.4419,-3.4442,-3.4512,-3.4536,-3.4571,-3.4574,-3.4591,-3.4619,-3.4626,-3.4702,-3.4673,-3.4719,-3.48,-3.4823,-3.4845,-3.4972,-3.4947,-3.4986,-3.5055,-3.5105,-3.512,-3.5133,-3.5177,-3.5194,-3.4996,-3.4996,-3.4996,0,-3.4475,-3.4557,-3.4549,-3.4612,-3.4639,-3.4609,-3.4678,-3.4701,-3.4748,-3.4767,-3.4737,-3.4839,-3.4857,-3.4949,-3.4981,-3.5,-3.5018,-3.4982,-3.5118,-3.5131,-3.5143,-3.5186,-3.5203,-3.5001,-3.5,-3.5,-3.4999,0,-3.4623,-3.4681,-3.4732,-3.4781,-3.4815,-3.488,-3.4881,-3.4916,-3.4905,-3.4911,-3.4988,-3.5009,-3.5057,-3.5078,-3.5067,-3.5169,-3.5151,-3.512,-3.5066,-3.5166,-3.5205,-3.5222,-3.5007,-3.5006,-3.5004,-3.5003,0,0,-3.4777,-3.4822,-3.4841,-3.4863,-3.4899,-3.4943,-3.5006,-3.5055,-3.5084,-3.5118,-3.517,-3.5239,-3.5211,-3.5237,-3.5228,-3.5272,-3.5371,-3.5236,-3.5236,-3.526,-3.5484,-3.5507,-3.5526,-3.5355,-3.5358,-3.5361,-3.5481,0,-3.4895,-3.5009,-3.5004,-3.5109,-3.5162,-3.5133,-3.5189,-3.5216,-3.5224,-3.5268,-3.5275,-3.5324,-3.5284,-3.5299,-3.5341,-3.535,-3.5416,-3.5341,-3.5402,-3.5404,-3.5395,-3.5547,-3.5571,-3.5684,-3.5497,-3.5499,-3.5501,0,-3.5049,-3.509,-3.5201,-3.523,-3.5252,-3.5302,-3.5346,-3.5389,-3.542,-3.5422,-3.5451,-3.5435,-3.5498,-3.5443,-3.5529,-3.5479,-3.5503,-3.5511,-3.5515,-3.552,-3.5459,-3.5555,-3.572,-3.5737,-3.5526,-3.5524,-3.5522,0,-3.5149,-3.5232,-3.5309,-3.5328,-3.5365,-3.5401,-3.5417,-3.5445,-3.5474,-3.5512,-3.5531,-3.5575,-3.5599,-3.5633,-3.5629,-3.559,-3.5716,-3.5661,-3.5719,-3.5719,-3.5746,-3.5744,-3.5917,-3.5763,-3.5763,-3.5762,-3.5762,0,-3.5282,-3.535,-3.5355,-3.5402,-3.5478,-3.5472,-3.5546,-3.5559,-3.5584,-3.5632,-3.561,-3.5655,-3.5647,-3.5692,-3.5689,-3.5761,-3.5772,-3.5774,-3.5772,-3.5776,-3.5776,-3.5791,-3.5783,-3.5767,-3.5766,-3.5765,-3.5764,0,-3.5406,-3.5412,-3.5495,-3.5523,-3.5532,-3.5587,-3.561,-3.5654,-3.566,-3.5721,-3.5735,-3.5744,-3.5795,-3.5795,-3.5854,-3.5852,-3.5939,-3.5928,-3.593,-3.5927,-3.5985,-3.5979,-3.6173,-3.6198,-3.6028,-3.603,-3.6031,0,-3.549,-3.5543,-3.5578,-3.561,-3.5629,-3.568,-3.5711,-3.5707,-3.5739,-3.5778,-3.5817,-3.5868,-3.5907,-3.5991,-3.6001,-3.6046,-3.6036,-3.61,-3.6042,-3.6044,-3.6036,-3.6033,-3.6038,-3.6112,-3.6113,-3.6115,-3.6116,0,-3.5639,-3.5639,-3.5686,-3.5733,-3.5771,-3.5807,-3.5841,-3.5868,-3.5867,-3.5904,-3.5958,-3.5989,-3.605,-3.6099,-3.6143,-3.6157,-3.6137,-3.6135,-3.615,-3.6154,-3.6153,-3.6154,-3.596,-3.613,-3.6129,-3.6128,-3.6127,-3.6126,-3.5745,-3.5791,-3.5823,-3.5875,-3.5901,-3.5933,-3.5976,-3.5988,-3.6034,-3.6084,-3.6078,-3.6138,-3.6167,-3.6223,-3.6242,-3.6287,-3.6264,-3.6287,-3.6293,-3.6298,-3.6305,-3.6146,-3.6295,-3.6295,-3.6294,-3.6294,-3.6294,0,-3.5892,-3.5912,-3.596,-3.6009,-3.605,-3.6029,-3.6066,-3.61,-3.6154,-3.6184,-3.6224,-3.6285,-3.6334,-3.6348,-3.6395,-3.6428,-3.642,-3.644,-3.6438,-3.6441,-3.6323,-3.6304,-3.6447,-3.6447,-3.6446,-3.6446,-3.6446,-3.6446,-3.5974,-3.605,-3.6054,-3.6143,-3.6161,-3.6221,-3.6244,-3.6273,-3.6297,-3.6367,-3.6408,-3.6418,-3.6441,-3.6489,-3.6532,-3.6535,-3.6553,-3.6577,-3.6576,-3.6465,-3.645,-3.6435,-3.6418,-3.6581,-3.6582,-3.6691,-3.6692,-3.6693]}]]